Flag for Saudi Arabia Weather past 2 weeks in Medina, Saudi Arabia

Now
102 °F

Sunny.


Feels Like: 96 °F
Forecast: 68 / 103 °F
Wind: 18 mph from West

Location: Madinah

Current Time: Jul 24, 2014 at 4:24:58 PM

Latest Report: Jul 24, 2014 at 4:00 PM


Visibility: 10 mi

Pressure: 29.77 "Hg

Humidity: 5%

Dew point: 21 °F

Location of MedinaLocation

Historic Weather in Medina — Graph

°F

Medina temperature yesterday

Maximum temperature yesterday: 102 °F (at 5:00 PM)
Minimum temperature yesterday: 82 °F (at 5:00 AM)
Average temperature yesterday: 93 °F

Past Weeks' High & Low Weather Summary

 TemperatureHumidityPressure
High109 °F (Jul 11, 2:00 PM)26% (Jul 13, 5:00 AM)29.92 "Hg (Jul 13, 5:00 AM)
Low81 °F (Jul 24, 6:00 AM)1% (Jul 16, 2:00 PM)29.71 "Hg (Jul 14, 5:00 PM)
Average97 °F9%29.82 "Hg
* Reported Jul 9 4:00 PM — Jul 24 3:00 PM, Medina, Weather by CustomWeather, © 2014

Note: Actual official high and low records may vary slightly from our data, if they occured in-between our weather recording intervals... More about our weather records

Advertising

Medina weather history for previous 24 hours

 ConditionsComfort  
Time TempWeatherWind HumidityBarometerVisibility
3:00 PM
Jul 24
104 °FSunny.18 mph6%29.77 "Hg10 mi
2:00 PM100 °FSunny.12 mph6%29.80 "Hg10 mi
1:00 PM99 °FSunny.7 mph7%29.83 "Hg10 mi
12:00 PM99 °FSunny.12 mph8%29.86 "Hg10 mi
11:00 AM95 °FSunny.7 mph9%29.86 "Hg10 mi
10:00 AM95 °FSunny.9 mph10%29.89 "Hg6 mi
9:00 AM91 °FSunny.7 mph11%29.89 "Hg5 mi
8:00 AM90 °FSunny.No wind13%29.86 "Hg4 mi
7:00 AM84 °FSunny.No wind15%29.86 "Hg10 mi
6:00 AM81 °FSunny.No wind17%29.86 "Hg10 mi
5:00 AM84 °FClear.No wind15%29.83 "Hg10 mi
4:00 AM86 °FClear.6 mph14%29.83 "Hg10 mi
3:00 AM88 °FClear.6 mph13%29.83 "Hg10 mi
2:00 AM90 °FClear.12 mph13%29.83 "Hg10 mi
1:00 AM91 °FClear.14 mph12%29.86 "Hg10 mi
12:00 AM91 °FClear.12 mph14%29.86 "Hg10 mi
11:00 PM
Jul 23
93 °FClear.14 mph13%29.89 "Hg10 mi
10:00 PM93 °FClear.14 mph12%29.86 "Hg10 mi
9:00 PM95 °FClear.16 mph13%29.86 "Hg10 mi
8:00 PM97 °FClear.16 mph12%29.83 "Hg10 mi
7:00 PM99 °FSunny.16 mph10%29.80 "Hg10 mi
6:00 PM100 °FSunny.16 mph4%29.77 "Hg10 mi
5:00 PM102 °FSunny.6 mph4%29.77 "Hg10 mi
Weather by CustomWeather, © 2014

See weather overviewHow to use our weather pages